• In United Kingdom
  • List of Countries
  • For 7 days
  • Water Temperature
  • Satellite Maps
  • Weather Map
  • Weather Widgets
  • user-avatar
    Login

    Hourly Weather Al-Ahmadi

    Today, 14 November, Wednesday

    Time Temperature Precipitation Wind Pressure Humidity
    00:00 +23°C° 0 mm 2 mps 753 mmHg 42%
    01:00 +23°C° 0 mm 2 mps 753 mmHg 44%
    02:00 +23°C° 0 mm 2 mps 753 mmHg 45%
    03:00 +23°C° 0 mm 2 mps 752 mmHg 44%
    04:00 +22°C° 0.2 mm 1 mps 752 mmHg 47%
    05:00 +22°C° 0.2 mm 1 mps 753 mmHg 49%
    06:00 +22°C° 0.2 mm 1 mps 753 mmHg 52%
    07:00 +22°C° 0 mm 1 mps 752 mmHg 52%
    08:00 +23°C° 0 mm 2 mps 752 mmHg 52%
    09:00 +22°C° 0 mm 3 mps 752 mmHg 56%
    10:00 +22°C° 0.6 mm 3 mps 752 mmHg 61%
    11:00 +21°C° 0.6 mm 3 mps 752 mmHg 67%
    12:00 +21°C° 0.6 mm 3 mps 752 mmHg 72%
    13:00 +22°C° 0.7 mm 3 mps 752 mmHg 72%
    14:00 +22°C° 0.7 mm 4 mps 751 mmHg 71%
    15:00 +23°C° 0.7 mm 4 mps 751 mmHg 71%
    16:00 +23°C° 0.3 mm 4 mps 751 mmHg 74%
    17:00 +23°C° 0.3 mm 5 mps 751 mmHg 76%
    18:00 +23°C° 0.3 mm 5 mps 750 mmHg 79%
    19:00 +23°C° 3.3 mm 6 mps 750 mmHg 79%
    20:00 +23°C° 3.3 mm 7 mps 750 mmHg 79%
    21:00 +23°C° 3.3 mm 8 mps 750 mmHg 80%
    22:00 +23°C° 6.4 mm 7 mps 750 mmHg 82%
    23:00 +23°C° 6.4 mm 6 mps 751 mmHg 85%

    Tomorrow, 15 November, Thursday

    Time Temperature Precipitation Wind Pressure Humidity
    00:00 +23°C° 6.4 mm 6 mps 751 mmHg 87%
    01:00 +22°C° 2.7 mm 7 mps 751 mmHg 86%
    02:00 +22°C° 2.7 mm 8 mps 751 mmHg 85%
    03:00 +22°C° 2.7 mm 9 mps 751 mmHg 84%
    04:00 +22°C° 1.4 mm 8 mps 751 mmHg 84%
    05:00 +22°C° 1.4 mm 8 mps 751 mmHg 84%
    06:00 +22°C° 1.4 mm 8 mps 751 mmHg 84%
    07:00 +23°C° 0.5 mm 8 mps 751 mmHg 82%
    08:00 +23°C° 0.5 mm 8 mps 752 mmHg 80%
    09:00 +24°C° 0.5 mm 7 mps 752 mmHg 78%
    10:00 +24°C° 0.2 mm 8 mps 752 mmHg 76%
    11:00 +26°C° 0.2 mm 8 mps 751 mmHg 74%
    12:00 +27°C° 0.2 mm 8 mps 751 mmHg 72%
    13:00 +27°C° 0.2 mm 7 mps 751 mmHg 70%
    14:00 +28°C° 0.2 mm 7 mps 750 mmHg 69%
    15:00 +28°C° 0.2 mm 6 mps 750 mmHg 67%
    16:00 +28°C° 0.2 mm 6 mps 750 mmHg 68%
    17:00 +27°C° 0.2 mm 5 mps 750 mmHg 69%
    18:00 +27°C° 0.2 mm 5 mps 750 mmHg 71%
    19:00 +27°C° 0.4 mm 5 mps 751 mmHg 74%
    20:00 +27°C° 0.4 mm 6 mps 751 mmHg 78%
    21:00 +26°C° 0.4 mm 7 mps 751 mmHg 81%
    22:00 +27°C° 1.1 mm 7 mps 751 mmHg 81%
    23:00 +27°C° 1.1 mm 6 mps 751 mmHg 81%

    Day after tomorrow, 16 November, Friday

    Time Temperature Precipitation Wind Pressure Humidity
    00:00 +27°C° 1.1 mm 6 mps 751 mmHg 80%
    01:00 +26°C° 1.5 mm 6 mps 751 mmHg 81%
    02:00 +26°C° 1.5 mm 6 mps 751 mmHg 81%
    03:00 +26°C° 1.5 mm 6 mps 751 mmHg 81%
    04:00 +24°C° 1.5 mm 6 mps 751 mmHg 80%
    05:00 +24°C° 1.5 mm 6 mps 751 mmHg 79%
    06:00 +24°C° 1.5 mm 7 mps 751 mmHg 78%
    07:00 +24°C° 0.1 mm 6 mps 752 mmHg 77%
    08:00 +26°C° 0.1 mm 6 mps 752 mmHg 77%
    09:00 +26°C° 0.1 mm 6 mps 753 mmHg 76%
    10:00 +27°C° 0.2 mm 5 mps 752 mmHg 67%
    11:00 +29°C° 0.2 mm 4 mps 752 mmHg 57%
    12:00 +30°C° 0.2 mm 3 mps 752 mmHg 47%
    13:00 +30°C° 0.2 mm 3 mps 752 mmHg 47%
    14:00 +30°C° 0.2 mm 3 mps 752 mmHg 47%
    15:00 +29°C° 0.2 mm 3 mps 751 mmHg 48%
    16:00 +29°C° 0.1 mm 3 mps 752 mmHg 51%
    17:00 +28°C° 0.1 mm 3 mps 752 mmHg 55%
    18:00 +27°C° 0.1 mm 4 mps 753 mmHg 58%
    19:00 +26°C° 0 mm 3 mps 753 mmHg 61%
    20:00 +26°C° 0 mm 3 mps 754 mmHg 63%
    21:00 +25°C° 0 mm 3 mps 754 mmHg 66%
    22:00 +25°C° 0 mm 3 mps 754 mmHg 68%
    23:00 +25°C° 0 mm 4 mps 754 mmHg 70%

    17 November, Saturday

    Time Temperature Precipitation Wind Pressure Humidity
    00:00 +23°C° 0 mm 4 mps 754 mmHg 73%
    01:00 +23°C° 0 mm 5 mps 754 mmHg 73%
    02:00 +22°C° 0 mm 5 mps 754 mmHg 74%
    03:00 +22°C° 0 mm 5 mps 754 mmHg 75%
    04:00 +22°C° 0 mm 5 mps 754 mmHg 76%
    05:00 +21°C° 0 mm 5 mps 755 mmHg 77%
    06:00 +21°C° 0 mm 5 mps 755 mmHg 78%
    07:00 +22°C° 0 mm 5 mps 755 mmHg 74%
    08:00 +22°C° 0 mm 5 mps 756 mmHg 70%
    09:00 +23°C° 0 mm 5 mps 756 mmHg 66%
    10:00 +25°C° 0 mm 5 mps 756 mmHg 60%
    11:00 +26°C° 0 mm 5 mps 755 mmHg 54%
    12:00 +27°C° 0 mm 5 mps 755 mmHg 49%
    13:00 +27°C° 0 mm 6 mps 755 mmHg 48%
    14:00 +27°C° 0 mm 6 mps 755 mmHg 47%
    15:00 +27°C° 0 mm 6 mps 754 mmHg 47%
    16:00 +26°C° 0 mm 6 mps 755 mmHg 50%
    17:00 +26°C° 0 mm 6 mps 755 mmHg 53%
    18:00 +24°C° 0 mm 6 mps 755 mmHg 56%
    19:00 +24°C° 0 mm 6 mps 755 mmHg 58%
    20:00 +23°C° 0 mm 5 mps 755 mmHg 59%
    21:00 +23°C° 0 mm 5 mps 756 mmHg 60%
    22:00 +23°C° 0 mm 5 mps 755 mmHg 60%
    23:00 +22°C° 0 mm 5 mps 755 mmHg 61%

    18 November, Sunday

    Time Temperature Precipitation Wind Pressure Humidity
    00:00 +22°C° 0 mm 5 mps 755 mmHg 61%
    01:00 +21°C° 0 mm 6 mps 755 mmHg 61%
    02:00 +21°C° 0 mm 6 mps 755 mmHg 61%
    03:00 +21°C° 0 mm 6 mps 755 mmHg 61%
    04:00 +21°C° 0 mm 6 mps 755 mmHg 62%
    05:00 +20°C° 0 mm 6 mps 755 mmHg 62%
    06:00 +20°C° 0 mm 6 mps 755 mmHg 62%
    07:00 +21°C° 0 mm 7 mps 756 mmHg 58%
    08:00 +22°C° 0 mm 7 mps 756 mmHg 54%
    09:00 +22°C° 0 mm 7 mps 756 mmHg 50%
    10:00 +23°C° 0 mm 7 mps 756 mmHg 46%
    11:00 +24°C° 0 mm 7 mps 755 mmHg 42%
    12:00 +26°C° 0 mm 7 mps 755 mmHg 38%
    13:00 +26°C° 0 mm 7 mps 755 mmHg 37%
    14:00 +26°C° 0 mm 8 mps 754 mmHg 35%
    15:00 +26°C° 0 mm 8 mps 754 mmHg 33%
    16:00 +24°C° 0 mm 7 mps 754 mmHg 35%
    17:00 +23°C° 0 mm 7 mps 754 mmHg 37%
    18:00 +22°C° 0 mm 6 mps 754 mmHg 39%
    19:00 +22°C° 0 mm 6 mps 755 mmHg 40%
    20:00 +21°C° 0 mm 6 mps 755 mmHg 41%
    21:00 +21°C° 0 mm 7 mps 755 mmHg 43%
    22:00 +20°C° 0 mm 6 mps 755 mmHg 44%
    23:00 +20°C° 0 mm 6 mps 754 mmHg 45%

    19 November, Monday

    Time Temperature Precipitation Wind Pressure Humidity
    00:00 +20°C° 0 mm 6 mps 754 mmHg 47%
    01:00 +19°C° 0 mm 6 mps 754 mmHg 47%
    02:00 +19°C° 0 mm 6 mps 754 mmHg 48%
    03:00 +17°C° 0 mm 6 mps 754 mmHg 49%
    04:00 +17°C° 0 mm 6 mps 754 mmHg 50%
    05:00 +17°C° 0 mm 6 mps 754 mmHg 51%
    06:00 +17°C° 0 mm 6 mps 755 mmHg 52%
    07:00 +17°C° 0 mm 6 mps 755 mmHg 49%
    08:00 +19°C° 0 mm 6 mps 755 mmHg 46%
    09:00 +20°C° 0 mm 6 mps 756 mmHg 43%
    10:00 +21°C° 0 mm 6 mps 755 mmHg 39%
    11:00 +22°C° 0 mm 6 mps 755 mmHg 35%
    12:00 +23°C° 0 mm 6 mps 755 mmHg 31%
    13:00 +24°C° 0 mm 6 mps 754 mmHg 31%
    14:00 +25°C° 0 mm 5 mps 754 mmHg 30%
    15:00 +25°C° 0 mm 5 mps 754 mmHg 29%
    16:00 +23°C° 0 mm 5 mps 754 mmHg 32%
    17:00 +23°C° 0 mm 5 mps 754 mmHg 34%
    18:00 +22°C° 0 mm 5 mps 754 mmHg 37%
    19:00 +22°C° 0 mm 5 mps 754 mmHg 37%
    20:00 +22°C° 0 mm 4 mps 754 mmHg 38%
    21:00 +21°C° 0 mm 4 mps 754 mmHg 39%
    22:00 +21°C° 0 mm 4 mps 754 mmHg 40%
    23:00 +21°C° 0 mm 4 mps 754 mmHg 41%
    Show more